Location: Betpouey
(42.8833°N, 0.0333°E)
Time: 22:02:55
(UTC+00:00)

Cosmos 1812 - Pass Details

Date: 01 December 2020
Orbit: 517 x 520 km, 82.5° (Epoch: 19 January)

Event Time Altitude Azimuth Distance (km) Brightness Sun altitude
Rises 17:30:54 0° 155° (SSE) 2,626 6.2 -11.5°
Reaches altitude 10° 17:33:21 10° 140° (SE) 1,744 5.2 -12.0°
Maximum altitude 17:36:19 22° 89° (E) 1,177 3.9 -12.5°
Enters shadow 17:37:10 20° 69° (ENE) 1,236 4.0 -12.6°
